TJS-2 (41911 NORAD) Tracking and Keplerian Element Data

This shows tracking and keplerian element data for the satellite.

Feedback or suggestion? Click here.




ElementValue
Catalog41911
NameTJS-2
Epoch Orbit2972
Epoch Day34.71364082
Epoch Year2025
RAAN269.7323
Inclination0.4615
Eccentricity0.0001618
Argument of Perigee73.1282
Mean Anonmoly114.6078
Mean Motion1.00270567
Decay Rate-1E-08
L11 41911U 17001A 25034.71364082 -.00000001 00000+0 00000+0 0 9990
L22 41911 0.4615 269.7323 0001618 73.1282 114.6078 1.00270567 29720



Live tracking and technical data element details for TJS-2 (NORAD 41911). TJS-2 can be tracked NOW for your location showing map with azimuth and elevation plus other details from your city location.







IsCatalogInMostPopularTable: catalog: 41911, numindb: 756
Update: records affected: 1



GetName: 41911 TJS-2

Hit Count: updated at: Sat, 17 May 2025 06:41:24 GMT